Regional Weather Roundup
Issued by NWS

Home | Current Version | Previous Version | Graphics & Text | Print | Product List | Glossary On
Versions: 1 2 3 4 5 6 7 8 9 10 11 12 13 14 15 16 17 18 19 20 21 22 23 24 25 26 27 28 29 30 31 32 33 34 35 36 37 38 39 40 41 42 43 44 45 46 47 48 49 50
000
ASUS43 KIND 310909
RWRIN

WEATHER ROUNDUP FOR INDIANA
NATIONAL WEATHER SERVICE INDIANAPOLIS IN
500 AM EDT FRI JUL 31 2015

NOTE: "FAIR" INDICATES FEW OR NO CLOUDS BELOW 12,000 FEET WITH NO
SIGNIFICANT WEATHER AND/OR OBSTRUCTIONS TO VISIBILITY.

* - STATION DOES NOT REPORT WEATHER SUCH AS PRECIPITATION OR FOG.

+ - STATION NOT QUALITY CONTROLLED BY THE NATIONAL WEATHER SERVICE.
    USE DATA WITH CAUTION...ESPECIALLY DEWPOINT AND RELATIVE
    HUMIDITY OBSERVATIONS.

INZ001>003-010>013-019-020-311000-
NORTHWEST INDIANA

CITY           SKY/WX    TMP DP  RH WIND       PRES   REMARKS
GARY /AIRPORT/ CLEAR     70  62  77 SW5       30.04S
KNOX *+        CLEAR     64  63  94 W6        30.02F
LA PORTE +     CLEAR     68  61  78 W6        30.04S
MICHIGAN CITY+ CLEAR     63  63 100 CALM      30.03S
MONTICELLO +   CLEAR     66  65  95 CALM      30.04S
RENSSELAER +   CLEAR     64  64 100 W5        30.05F
VALPARAISO     CLEAR     66  61  84 W5        30.04S

$$

LMZ046-743>745-311000-
SOUTHERN LAKE MICHIGAN

STATION/POSITION TIME  TEMP    WIND        PRES    WAVE
                       AIR SEA DIR/SP/G            HT
                 (UTC) (F)     (DEG/KT/KT) (MB)    (FT)
BURNS HARBOR     0800   75     260/ 10/ 11 1017.3S
MICHIGAN CITY    0800   75     250/ 12/ 14   N/A
5NW MICH CITY    0900   75 74  290/ 10/ 12   N/A     2

$$

INZ004-005-014>016-021>024-311000-
NORTH CENTRAL INDIANA

CITY           SKY/WX    TMP DP  RH WIND       PRES   REMARKS
GOSHEN         CLEAR     63  59  87 CALM      30.01S
LOGANSPORT +   CLEAR     61  59  94 W5        30.05S
PERU/GRISSOM   CLEAR     65  62  90 W7        30.03F
ROCHESTER +    CLEAR     68  64  88 W5        30.04S
SOUTH BEND     CLEAR     66  61  84 W7        30.02S
WARSAW +       CLEAR     63  61  94 W3        30.03R

$$

INZ006>009-017-018-025>027-311000-
NORTHEAST INDIANA

CITY           SKY/WX    TMP DP  RH WIND       PRES   REMARKS
ANGOLA *+      CLEAR     66  61  82 W5        30.01S
AUBURN +       CLEAR     63  59  88 CALM      30.02S
FORT WAYNE     CLEAR     67  62  84 W9        30.02S
HUNTINGTON +   CLEAR     66  62  86 W6        30.02S

$$

INZ028-029-035-036-043>045-051>053-311000-
WEST CENTRAL INDIANA

CITY           SKY/WX    TMP DP  RH WIND       PRES   REMARKS
CRAWFORDSVL +  CLEAR     64  63  97 W5          N/A
GREENCASTLE +  CLEAR     63  57  82 CALM      30.07F
LAFAYETTE      CLEAR     64  63  96 W3        30.05S
TERRE HAUTE    CLEAR     68  64  87 N5        30.06F

$$

INZ030>032-037>040-046>048-054>057-064-065-311000-
CENTRAL INDIANA

CITY           SKY/WX    TMP DP  RH WIND       PRES   REMARKS
FISHERS *+     CLEAR     66  63  88 W3        30.05F
FRANKFORT +    CLEAR    N/A N/A N/A SW5       30.08S
GREENWOOD *+   CLEAR     63  59  88 CALM      30.06
INDIANAPOLIS   CLEAR     66  60  81 W7        30.03F
-EAGLE CREEK   CLEAR     73  63  70 NW12      30.04F HAZE
KOKOMO *+      CLEAR     68  61  77 W9        30.04F
MARION +       CLEAR     63  61  92 W5        30.04S
MT COMFORT *+  CLEAR     63 N/A N/A W3        30.05F
SHELBYVILLE    CLEAR     65  61  87 SW3       30.05F
ZIONSVILLE +   PTCLDY    68  60  76 W6        30.06F

$$

INZ033-034-041-042-049-050-058-059-311000-
EAST CENTRAL INDIANA

CITY           SKY/WX    TMP DP  RH WIND       PRES   REMARKS
MUNCIE         CLEAR     66  61  84 W7        30.04F

$$

INZ060-061-067>069-081>083-085>088-311000-
SOUTHWEST INDIANA

CITY           SKY/WX    TMP DP  RH WIND       PRES   REMARKS
EVANSVILLE     CLEAR     73  64  73 NW6       30.07F
HUNTINGBURG *+ CLEAR     64  63  94 CALM      30.06F
WASHINGTON +   CLEAR     66  62  87 CALM      30.05F

$$

INZ062-063-066-070>080-084-089>092-311000-
SOUTH CENTRAL AND SOUTHEAST INDIANA

CITY           SKY/WX    TMP DP  RH WIND       PRES   REMARKS
BLOOMINGTON    CLEAR     64  62  93 CALM      30.06F
MADISON *+     CLEAR     61  61 100 CALM      30.08S
NORTH VERNON + CLEAR     63  63 100 CALM      30.07F
SEYMOUR +      FOG       61  61 100 CALM      30.05F VSB 1

$$



USA.gov is the U.S. government's official web portal to all federal, state and local government web resources and services.